SCOUT B DEB

基本信息
目录编号:
29278
目录名称:
SCOUT B DEB
国际标识:
1968-066M
轨道中心:
EARTH
物体状态:
在轨
发射日期:
1968-08-08 UTC
轨道信息
数据来源: 国际轨道数据
星历时间: 2026-06-19T04:50:24+0800
半长轴: 7516.656km
偏心率: 0.0673872
轨道倾角: 80.577°
近地点辐角: 87.897°
升交点赤经: 34.081°
平近点角: 279.912°
近地点: 631.992km
远地点: 1645.046km
周期: 108.093分钟
每日圈数: 13.321888
详细信息
发射场:
AFWTR
轨道高度:
LEO
数据来源:
AOE Integration Group
参考系:
TEME
时间系统:
UTC
历元类型:
SGP4
2D轨道图
3D轨道图
轨道高度分析图
轨道倾角分析图
轨道综合分析图
查看轨道综合分析图